DELTA 1 DEB, 40756

Orbit data source: Space-Track

DELTA 1 DEB, 40756 is space debris in SSO originally from a launch on Thu, 29 Jul 1976 UTC launched from the Air Force Western Test Range (AFWTR). Debris objects in space refer to the collection of defunct objects orbiting the Earth. Examples of debris include non-operational satellites, rocket bodies, and fragments generated from explosions, collisions, or faulty payload assembly.

Loading next visibility...
Identifier
40756, 1976-077FZ
Orbit
SSO
Country
Flag of USUS
Related business
Manufacturer
Unknown
Mission
Spacecraft
Bus & Motor
Unknown
Mass
Unknown
Launch date (UTC)
1976-07-29 (50 years ago)
Launch vehicle
Unknown
Launch site
Air Force Western Test Range (AFWTR)
Object type
Payload
Rocket body
Debris
Shape & HBR
Unknown shape, 0.1 m
Radar Cross Section
Medium (>0.1 m² and <1 m²)

Expand to show TLE details & history
Last TLE update: 4 days ago

TLE from 4 days ago
0 DELTA 1 DEB
1 40756U 76077FZ  26169.72745422 -.00000047  00000-0 -12276-4 0  9991
2 40756 102.5708 154.7552 0077386  13.3167 162.1508 12.25957684956729
Epoch: 2026-06-18T17:27Z
TLE epoch observation values (Epoch: 2026-06-18T17:27:32.044Z)
Latitude
4.08107°
Longitude
166.81229°
Altitude
1,627.344 km
Speed
7.032 km/s
True Right ascension
22h 22m 38s
True Declination
4° 03' 34"
Sunlit
Object was in daylight at epoch
Visualization orbit readout
Latitude
Unknown
Longitude
Unknown
Altitude
Unknown
Speed
Unknown
Apparent Right ascension
Unknown
Apparent Declination
Unknown
Sunlit
N/A
Visualization observer readout
Local Sidereal Time
21:37:59
Azimuth
Unknown
Elevation
Unknown
Doppler factor
Unknown
Orbital elements
Apogee altitude
1,625.788 km
Perigee altitude
1,502.861 km
Semi-major axis
7,942.462 km
Eccentricity
0.00774
Inclination
102.5708°
RAAN
154.7552°
Arg. of periapsis
13.3167°
True anomaly
162.42013°
Mean anomaly
162.1508°
Eccentric anomaly
162.28571°
Mean motion
3.06627 °/min
Orbital period
117.41 mins
BSTAR
-0.000012276
Loading maneuver chart data...
Computing Atmospheric mass density...
Loading historical data...
Loading historical data...
Loading historical data...
Loading historical data...
Loading historical data...
Loading historical data...
Loading historical data...

Documentation

Showing up to 5 results
|